Weather History for KHJH - December, 2012

Change the Weather History Date:

Tuesday, December 4, 2012

  Actual Average Record
Temperature  
Mean Temperature 42 °F -  
Max Temperature 60 °F 41 °F 66 °F (1959)
Min Temperature 23 °F 18 °F 3 °F (2005)
Degree Days  
Heating Degree Days 24    
Moisture  
Dew Point 23 °F    
Average Humidity 57    
Maximum Humidity 84    
Minimum Humidity 24    
Precipitation  
Precipitation 0.00 in - - ()
Sea Level Pressure  
Sea Level Pressure 30.24 in    
Wind  
Wind Speed 2 mph (WNW)    
Max Wind Speed 9 mph    
Max Gust Speed -    
Visibility 10 miles    
Events      
Averages and records for this station are not official NWS values.
T = Trace of Precipitation, MM = Missing Value Source: NWS Daily Summary

Daily Weather History Graph

Daily Weather History Graph

Search for Another Location

Airport or City:

Trip Planner

Search our weather history database for the weather conditions in past years. The results will help you decide how hot, cold, wet, or windy it might be!

Date:

Astronomy

Dec. 04, 2012 Rise Set
Actual Time 7:36 AM CST 5:04 PM CST
Civil Twilight 7:06 AM CST 5:34 PM CST
Nautical Twilight 6:32 AM CST 6:08 PM CST
Astronomical Twilight 5:59 AM CST 6:41 PM CST
Moon 10:53 PM CST (12/4) 11:31 AM CST (12/4)
Length of Visible Light 10h 28m
Length of Day
9h 27m
Waning Gibbous, 69% of the Moon is Illuminated
Dec 4
Waning Gibbous
Dec 6
Last Quarter
Dec 13
New
Dec 19
First Quarter
Dec 28
Full

Hourly Weather History & Observations

Time (CST) Temp. Windchill Dew Point Humidity Pressure Visibility Wind Dir Wind Speed Gust Speed Precip Events Conditions
12:15 AM 34.2 °F 31.2 °F 23.0 °F 64% 30.14 in 10.0 mi WNW 3.5 mph - N/A   Clear
12:35 AM 35.1 °F - 22.5 °F 60% 30.14 in 10.0 mi Calm Calm - N/A   Clear
12:55 AM 33.4 °F 30.4 °F 22.1 °F 63% 30.14 in 10.0 mi WNW 3.5 mph - N/A   Clear
1:15 AM 32.9 °F - 22.1 °F 65% 30.14 in 10.0 mi Calm Calm - N/A   Clear
1:35 AM 31.8 °F - 21.9 °F 67% 30.15 in 10.0 mi Calm Calm - N/A   Clear
1:55 AM 31.5 °F - 22.1 °F 68% 30.15 in 10.0 mi Calm Calm - N/A   Clear
2:15 AM 30.9 °F - 21.7 °F 69% 30.16 in 10.0 mi Calm Calm - N/A   Clear
2:55 AM 29.1 °F - 21.7 °F 74% 30.17 in 10.0 mi Calm Calm - N/A   Clear
3:15 AM 30.0 °F - 21.6 °F 71% 30.18 in 10.0 mi Calm Calm - N/A   Clear
3:35 AM 30.2 °F - 21.9 °F 71% 30.17 in 10.0 mi Calm Calm - N/A   Clear
3:55 AM 30.6 °F 27.1 °F 21.7 °F 70% 30.18 in 10.0 mi West 3.5 mph - N/A   Clear
4:15 AM 30.4 °F 25.6 °F 21.6 °F 70% 30.19 in 10.0 mi West 4.6 mph - N/A   Clear
4:35 AM 30.0 °F - 21.4 °F 70% 30.19 in 10.0 mi Calm Calm - N/A   Clear
4:55 AM 30.2 °F - 21.2 °F 69% 30.20 in 10.0 mi Calm Calm - N/A   Clear
5:15 AM 28.8 °F 25.0 °F 21.4 °F 74% 30.21 in 10.0 mi WSW 3.5 mph - N/A   Clear
5:35 AM 28.2 °F - 20.7 °F 73% 30.22 in 10.0 mi Calm Calm - N/A   Clear
5:55 AM 26.2 °F 22.1 °F 20.3 °F 78% 30.22 in 10.0 mi West 3.5 mph - N/A   Clear
6:15 AM 26.6 °F 20.0 °F 20.5 °F 78% 30.23 in 10.0 mi West 5.8 mph - N/A   Clear
6:35 AM 26.4 °F 20.9 °F 20.3 °F 78% 30.24 in 10.0 mi West 4.6 mph - N/A   Clear
6:55 AM 25.2 °F - 19.9 °F 81% 30.25 in 10.0 mi Calm Calm - N/A   Clear
7:15 AM 25.3 °F - 20.1 °F 81% 30.26 in 10.0 mi Calm Calm - N/A   Clear
7:35 AM 23.4 °F - 19.0 °F 84% 30.26 in 10.0 mi Calm Calm - N/A   Clear
7:55 AM 24.8 °F - 19.8 °F 81% 30.26 in 10.0 mi Calm Calm - N/A   Clear
8:15 AM 25.2 °F - 20.5 °F 82% 30.27 in 10.0 mi Calm Calm - N/A   Clear
8:35 AM 29.5 °F 23.4 °F 22.6 °F 76% 30.27 in 10.0 mi West 5.8 mph - N/A   Clear
8:55 AM 32.4 °F 26.9 °F 23.7 °F 70% 30.27 in 10.0 mi WNW 5.8 mph - N/A   Clear
9:15 AM 35.4 °F 31.5 °F 24.4 °F 64% 30.27 in 10.0 mi West 4.6 mph - N/A   Clear
9:35 AM 38.5 °F 33.4 °F 25.2 °F 59% 30.28 in 10.0 mi West 6.9 mph - N/A   Clear
9:55 AM 42.8 °F 38.0 °F 24.3 °F 48% 30.29 in 10.0 mi WNW 8.1 mph - N/A   Clear
10:15 AM 44.4 °F 40.5 °F 22.8 °F 43% 30.29 in 10.0 mi NW 6.9 mph - N/A   Clear
10:35 AM 45.3 °F 40.6 °F 23.7 °F 43% 30.30 in 10.0 mi NW 9.2 mph - N/A   Clear
10:55 AM 46.9 °F - 24.3 °F 41% 30.30 in 10.0 mi NW 6.9 mph - N/A   Clear
11:15 AM 48.7 °F - 24.4 °F 39% 30.29 in 10.0 mi NW 6.9 mph - N/A   Clear
11:35 AM 50.4 °F - 23.9 °F 36% 30.29 in 10.0 mi NW 4.6 mph - N/A   Clear
11:55 AM 52.3 °F - 23.4 °F 32% 30.27 in 10.0 mi West 4.6 mph - N/A   Clear
12:15 PM 54.5 °F - 23.5 °F 30% 30.27 in 10.0 mi West 5.8 mph - N/A   Clear
12:35 PM 55.4 °F - 23.5 °F 29% 30.27 in 10.0 mi WNW 4.6 mph - N/A   Clear
12:55 PM 57.0 °F - 23.2 °F 27% 30.26 in 10.0 mi West 3.5 mph - N/A   Clear
1:15 PM 57.2 °F - 23.0 °F 27% 30.26 in 10.0 mi WNW 3.5 mph - N/A   Clear
1:35 PM 57.9 °F - 23.0 °F 26% 30.26 in 10.0 mi NW 4.6 mph - N/A   Clear
1:55 PM 58.3 °F - 23.4 °F 26% 30.25 in 10.0 mi NW 5.8 mph - N/A   Clear
2:15 PM 59.2 °F - 23.0 °F 25% 30.25 in 10.0 mi Calm Calm - N/A   Clear
2:35 PM 59.5 °F - 23.2 °F 25% 30.25 in 10.0 mi WSW 3.5 mph - N/A   Clear
2:55 PM 59.9 °F - 23.2 °F 24% 30.25 in 10.0 mi West 4.6 mph - N/A   Clear
3:15 PM 59.9 °F - 23.4 °F 25% 30.24 in 10.0 mi Calm Calm - N/A   Clear
3:35 PM 60.1 °F - 23.5 °F 25% 30.24 in 10.0 mi WSW 3.5 mph - N/A   Clear
3:55 PM 59.4 °F - 23.4 °F 25% 30.24 in 10.0 mi Calm Calm - N/A   Clear
4:15 PM 58.6 °F - 23.7 °F 26% 30.24 in 10.0 mi SW 3.5 mph - N/A   Clear
4:35 PM 56.5 °F - 23.9 °F 28% 30.25 in 10.0 mi Calm Calm - N/A   Clear
4:55 PM 54.5 °F - 23.4 °F 30% 30.25 in 10.0 mi Calm Calm - N/A   Clear
5:15 PM 48.7 °F - 23.5 °F 37% 30.26 in 10.0 mi Calm Calm - N/A   Clear
5:35 PM 44.2 °F - 25.0 °F 47% 30.25 in 10.0 mi Calm Calm - N/A   Clear
5:55 PM 43.3 °F - 24.1 °F 47% 30.25 in 10.0 mi Calm Calm - N/A   Clear
6:15 PM 39.9 °F - 23.7 °F 52% 30.25 in 10.0 mi Calm Calm - N/A   Clear
6:35 PM 41.4 °F - 24.6 °F 51% 30.26 in 10.0 mi Calm Calm - N/A   Clear
6:55 PM 38.1 °F - 23.9 °F 57% 30.26 in 10.0 mi Calm Calm - N/A   Clear
7:15 PM 38.8 °F - 24.6 °F 57% 30.26 in 10.0 mi Calm Calm - N/A   Clear
7:35 PM 39.9 °F - 24.4 °F 54% 30.25 in 10.0 mi Calm Calm - N/A   Clear
7:55 PM 35.4 °F - 24.1 °F 63% 30.26 in 10.0 mi Calm Calm - N/A   Clear
8:15 PM 33.8 °F - 24.1 °F 68% 30.26 in 10.0 mi Calm Calm - N/A   Clear
8:35 PM 33.8 °F - 24.1 °F 68% 30.26 in 10.0 mi Calm Calm - N/A   Clear
8:55 PM 33.1 °F - 23.9 °F 69% 30.27 in 10.0 mi Calm Calm - N/A   Clear
9:15 PM 32.2 °F - 23.7 °F 71% 30.27 in 10.0 mi Calm Calm - N/A   Clear
9:35 PM 32.0 °F - 23.2 °F 70% 30.26 in 10.0 mi Calm Calm - N/A   Clear
9:55 PM 30.4 °F - 23.0 °F 74% 30.26 in 10.0 mi Calm Calm - N/A   Clear
10:15 PM 30.6 °F - 23.2 °F 74% 30.27 in 10.0 mi Calm Calm - N/A   Clear
10:35 PM 31.8 °F - 23.0 °F 70% 30.27 in 10.0 mi Calm Calm - N/A   Clear
10:55 PM 29.1 °F - 22.1 °F 75% 30.27 in 10.0 mi Calm Calm - N/A   Clear
11:15 PM 29.1 °F - 22.3 °F 76% 30.27 in 10.0 mi Calm Calm - N/A   Clear
11:35 PM 29.8 °F - 22.8 °F 75% 30.28 in 10.0 mi Calm Calm - N/A   Clear
11:55 PM 30.0 °F - 23.0 °F 75% 30.27 in 10.0 mi Calm Calm - N/A   Clear